When you browse on this site, cookies collect data to enhance your experience and personalize the content and advertising you see.
Visit our Privacy Policy to learn more. By continuing to use the site, you agree to this use of cookies and data.
  • en France
  • Liste des pays
  • À 7 jours
  • Température de l'eau
  • Carte satellitaire
  • Carte météo
  • Widgets météo
  • user-avatar
    Se connecter

    Météo par heure à Ganja

    Ce jour, 18 Juin, Mardi

    Heure Température Précipitation Vent Pression Humidité
    00:00 +25°C° 0.1 mm 1 m/s 722 mmHg 64%
    01:00 +24°C° 0.3 mm 1 m/s 722 mmHg 66%
    02:00 +24°C° 0.3 mm 1 m/s 722 mmHg 68%
    03:00 +24°C° 0 mm 1 m/s 722 mmHg 70%
    04:00 +24°C° 0.1 mm 1 m/s 722 mmHg 70%
    05:00 +24°C° 0.1 mm 1 m/s 723 mmHg 70%
    06:00 +24°C° 0.1 mm 1 m/s 723 mmHg 70%
    07:00 +25°C° 0.1 mm 1 m/s 723 mmHg 68%
    08:00 +26°C° 0.1 mm 1 m/s 723 mmHg 65%
    09:00 +27°C° 0.1 mm 2 m/s 723 mmHg 63%
    10:00 +28°C° 0.2 mm 2 m/s 722 mmHg 59%
    11:00 +30°C° 0.2 mm 2 m/s 722 mmHg 54%
    12:00 +31°C° 0.2 mm 2 m/s 722 mmHg 50%
    13:00 +31°C° 0.3 mm 3 m/s 722 mmHg 47%
    14:00 +33°C° 0.3 mm 3 m/s 721 mmHg 44%
    15:00 +34°C° 0.3 mm 3 m/s 721 mmHg 41%
    16:00 +33°C° 0.2 mm 3 m/s 721 mmHg 43%
    17:00 +33°C° 0.2 mm 3 m/s 721 mmHg 45%
    18:00 +31°C° 0.2 mm 2 m/s 721 mmHg 47%
    19:00 +30°C° 0.2 mm 2 m/s 722 mmHg 50%
    20:00 +29°C° 0.2 mm 2 m/s 722 mmHg 53%
    21:00 +27°C° 0.2 mm 2 m/s 723 mmHg 56%
    22:00 +27°C° 0.3 mm 2 m/s 723 mmHg 58%
    23:00 +26°C° 0.3 mm 2 m/s 723 mmHg 61%

    Demain, 19 Juin, Mercredi

    Heure Température Précipitation Vent Pression Humidité
    00:00 +25°C° 0.3 mm 3 m/s 723 mmHg 64%
    01:00 +24°C° 0.4 mm 2 m/s 723 mmHg 67%
    02:00 +23°C° 0.4 mm 2 m/s 723 mmHg 71%
    03:00 +23°C° 0.4 mm 1 m/s 722 mmHg 74%
    04:00 +23°C° 0.2 mm 2 m/s 722 mmHg 73%
    05:00 +23°C° 0.2 mm 2 m/s 722 mmHg 72%
    06:00 +24°C° 0.2 mm 2 m/s 723 mmHg 70%
    07:00 +25°C° 0.1 mm 2 m/s 723 mmHg 68%
    08:00 +26°C° 0.1 mm 3 m/s 722 mmHg 65%
    09:00 +27°C° 0.1 mm 3 m/s 722 mmHg 62%
    10:00 +28°C° 0.2 mm 3 m/s 722 mmHg 58%
    11:00 +29°C° 0.2 mm 2 m/s 722 mmHg 54%
    12:00 +30°C° 0.2 mm 2 m/s 722 mmHg 50%
    13:00 +31°C° 0.2 mm 2 m/s 722 mmHg 46%
    14:00 +33°C° 0.2 mm 3 m/s 722 mmHg 43%
    15:00 +33°C° 0.2 mm 3 m/s 722 mmHg 39%
    16:00 +33°C° 0.1 mm 3 m/s 722 mmHg 41%
    17:00 +33°C° 0.1 mm 3 m/s 722 mmHg 43%
    18:00 +31°C° 0.1 mm 3 m/s 721 mmHg 46%
    19:00 +30°C° 0 mm 3 m/s 722 mmHg 47%
    20:00 +29°C° 0 mm 3 m/s 722 mmHg 49%
    21:00 +27°C° 0 mm 3 m/s 722 mmHg 51%
    22:00 +27°C° 0.1 mm 3 m/s 723 mmHg 52%
    23:00 +26°C° 0.1 mm 3 m/s 723 mmHg 53%

    Après-demain, 20 Juin, Jeudi

    Heure Température Précipitation Vent Pression Humidité
    00:00 +26°C° 0.1 mm 3 m/s 723 mmHg 54%
    01:00 +25°C° 0 mm 3 m/s 722 mmHg 55%
    02:00 +25°C° 0 mm 2 m/s 722 mmHg 56%
    03:00 +24°C° 0 mm 2 m/s 722 mmHg 57%
    04:00 +25°C° 0 mm 2 m/s 722 mmHg 57%
    05:00 +25°C° 0 mm 1 m/s 722 mmHg 57%
    06:00 +25°C° 0 mm 1 m/s 722 mmHg 57%
    07:00 +27°C° 0 mm 1 m/s 722 mmHg 55%
    08:00 +28°C° 0 mm 2 m/s 722 mmHg 53%
    09:00 +29°C° 0 mm 2 m/s 722 mmHg 50%
    10:00 +30°C° 0 mm 2 m/s 722 mmHg 45%
    11:00 +33°C° 0 mm 3 m/s 722 mmHg 40%
    12:00 +34°C° 0 mm 4 m/s 722 mmHg 35%
    13:00 +34°C° 0 mm 4 m/s 721 mmHg 34%
    14:00 +35°C° 0 mm 4 m/s 721 mmHg 32%
    15:00 +35°C° 0 mm 5 m/s 721 mmHg 31%
    16:00 +34°C° 0.1 mm 4 m/s 720 mmHg 34%
    17:00 +34°C° 0.1 mm 4 m/s 720 mmHg 37%
    18:00 +33°C° 0.1 mm 4 m/s 720 mmHg 39%
    19:00 +32°C° 0.1 mm 4 m/s 721 mmHg 42%
    20:00 +29°C° 0.1 mm 4 m/s 721 mmHg 44%
    21:00 +28°C° 0.1 mm 4 m/s 722 mmHg 46%
    22:00 +27°C° 0.1 mm 3 m/s 722 mmHg 48%
    23:00 +26°C° 0.1 mm 3 m/s 722 mmHg 49%

    21 Juin, Vendredi

    Heure Température Précipitation Vent Pression Humidité
    00:00 +26°C° 0.1 mm 3 m/s 722 mmHg 50%
    01:00 +25°C° 0 mm 3 m/s 721 mmHg 50%
    02:00 +25°C° 0 mm 3 m/s 721 mmHg 50%
    03:00 +24°C° 0 mm 2 m/s 721 mmHg 50%
    04:00 +25°C° 0 mm 2 m/s 721 mmHg 52%
    05:00 +25°C° 0 mm 2 m/s 722 mmHg 53%
    06:00 +25°C° 0 mm 1 m/s 722 mmHg 54%
    07:00 +26°C° 0.1 mm 1 m/s 722 mmHg 53%
    08:00 +27°C° 0.1 mm 2 m/s 722 mmHg 51%
    09:00 +28°C° 0.1 mm 2 m/s 722 mmHg 49%
    10:00 +30°C° 0.1 mm 3 m/s 722 mmHg 46%
    11:00 +32°C° 0.1 mm 4 m/s 722 mmHg 42%
    12:00 +33°C° 0.1 mm 4 m/s 722 mmHg 38%
    13:00 +33°C° 0.1 mm 5 m/s 722 mmHg 36%
    14:00 +34°C° 0.1 mm 5 m/s 721 mmHg 35%
    15:00 +34°C° 0.1 mm 6 m/s 721 mmHg 34%
    16:00 +33°C° 0.1 mm 5 m/s 721 mmHg 37%
    17:00 +33°C° 0.1 mm 5 m/s 721 mmHg 40%
    18:00 +32°C° 0.1 mm 4 m/s 721 mmHg 43%
    19:00 +30°C° 0 mm 4 m/s 722 mmHg 44%
    20:00 +29°C° 0 mm 4 m/s 723 mmHg 45%
    21:00 +28°C° 0 mm 4 m/s 723 mmHg 47%
    22:00 +27°C° 0 mm 3 m/s 723 mmHg 48%
    23:00 +27°C° 0 mm 3 m/s 723 mmHg 49%

    22 Juin, Samedi

    Heure Température Précipitation Vent Pression Humidité
    00:00 +26°C° 0 mm 2 m/s 723 mmHg 50%
    01:00 +26°C° 0 mm 2 m/s 723 mmHg 52%
    02:00 +25°C° 0 mm 2 m/s 723 mmHg 54%
    03:00 +25°C° 0 mm 2 m/s 723 mmHg 55%
    04:00 +25°C° 0 mm 1 m/s 723 mmHg 56%
    05:00 +25°C° 0 mm 1 m/s 724 mmHg 56%
    06:00 +26°C° 0 mm 1 m/s 724 mmHg 56%
    07:00 +27°C° 0 mm 1 m/s 724 mmHg 53%
    08:00 +28°C° 0 mm 2 m/s 724 mmHg 49%
    09:00 +30°C° 0 mm 2 m/s 724 mmHg 46%
    10:00 +31°C° 0 mm 3 m/s 724 mmHg 42%
    11:00 +33°C° 0 mm 4 m/s 724 mmHg 39%
    12:00 +34°C° 0 mm 4 m/s 724 mmHg 35%
    13:00 +35°C° 0 mm 5 m/s 724 mmHg 35%
    14:00 +35°C° 0 mm 5 m/s 723 mmHg 35%
    15:00 +35°C° 0 mm 5 m/s 723 mmHg 35%
    16:00 +34°C° 0.1 mm 5 m/s 723 mmHg 38%
    17:00 +34°C° 0.1 mm 5 m/s 723 mmHg 40%
    18:00 +33°C° 0.1 mm 5 m/s 723 mmHg 43%
    19:00 +32°C° 0.1 mm 4 m/s 724 mmHg 46%
    20:00 +29°C° 0.1 mm 4 m/s 724 mmHg 49%
    21:00 +28°C° 0.1 mm 3 m/s 725 mmHg 51%
    22:00 +28°C° 0 mm 3 m/s 724 mmHg 52%
    23:00 +27°C° 0 mm 3 m/s 724 mmHg 52%

    23 Juin, Dimanche

    Heure Température Précipitation Vent Pression Humidité
    00:00 +27°C° 0 mm 3 m/s 724 mmHg 53%
    01:00 +26°C° 0 mm 2 m/s 724 mmHg 53%
    02:00 +25°C° 0 mm 2 m/s 724 mmHg 54%
    03:00 +25°C° 0 mm 2 m/s 724 mmHg 54%
    04:00 +26°C° 0 mm 1 m/s 724 mmHg 54%
    05:00 +26°C° 0 mm 1 m/s 724 mmHg 54%
    06:00 +27°C° 0 mm 1 m/s 724 mmHg 54%
    07:00 +28°C° 0 mm 1 m/s 724 mmHg 50%
    08:00 +29°C° 0 mm 1 m/s 724 mmHg 47%
    09:00 +30°C° 0 mm 2 m/s 724 mmHg 44%
    10:00 +32°C° 0 mm 2 m/s 724 mmHg 40%
    11:00 +34°C° 0 mm 2 m/s 724 mmHg 36%
    12:00 +36°C° 0 mm 3 m/s 724 mmHg 32%
    13:00 +36°C° 0 mm 3 m/s 724 mmHg 30%
    14:00 +37°C° 0 mm 4 m/s 723 mmHg 28%
    15:00 +39°C° 0 mm 5 m/s 723 mmHg 27%
    16:00 +37°C° 0 mm 5 m/s 723 mmHg 30%
    17:00 +36°C° 0 mm 5 m/s 723 mmHg 34%
    18:00 +35°C° 0 mm 5 m/s 723 mmHg 37%
    19:00 +34°C° 0 mm 5 m/s 723 mmHg 39%
    20:00 +32°C° 0 mm 5 m/s 724 mmHg 41%
    21:00 +30°C° 0 mm 5 m/s 724 mmHg 43%
    22:00 +29°C° 0.1 mm 4 m/s 724 mmHg 46%
    23:00 +29°C° 0.1 mm 4 m/s 724 mmHg 48%
    Voir plus